Location: ???????????
(48.5923°N, 37.5730°E)
Time: 20:22:12
(UTC+00:00)

Daily predictions for brighter satellites

Satellite Brightness Start Highest point End
(mag) Time Altitude Azimuth Time Altitude Azimuth Time Altitude Azimuth
IRS-1C Rocket 4.5 17:19:58 10° S 17:25:13 70° WSW 17:30:32 10° NNW
Cosmos 2150 Rocket 4.1 17:22:07 10° NNW 17:27:37 80° ENE 17:33:03 10° SSE
Landsat 7 3.8 17:23:00 10° SSE 17:27:43 84° ENE 17:32:28 10° NNW
ATLAS 5 CENTAUR R/B 3.0 17:23:53 10° NNW 17:28:40 40° NE 17:34:26 10° ESE
Okean-O 3.4 17:26:26 10° S 17:30:46 54° W 17:35:08 10° NNW
JB-3 4.3 17:27:06 10° NNE 17:31:02 78° ESE 17:35:00 10° S
NOSS 8 (E) 4.2 17:27:40 10° SW 17:31:12 73° SE 17:34:09 10° NE
NOSS 8 (F) 4.1 17:28:35 10° SW 17:32:06 79° SE 17:35:05 10° NE
Cosmos 1933 3.4 17:29:19 10° N 17:33:25 84° W 17:37:28 10° S
Cosmos 1782 2.7 17:29:32 10° N 17:33:29 81° E 17:37:24 10° SSE
CZ-4C R/B 3.3 17:30:56 10° SSE 17:34:07 18° ESE 17:37:40 10° ENE
SeaSat 1 3.9 17:30:10 10° S 17:34:42 36° WSW 17:39:16 10° NW
ATLAS 3B R/B 2.7 17:28:36 10° SSW 17:35:03 59° ESE 17:41:57 10° NE
Timation 2 Rocket 4.3 17:28:34 10° S 17:35:04 58° ESE 17:41:47 10° NE
SJ-6B 4.1 17:32:18 10° S 17:36:12 43° W 17:40:06 10° NNW
Cosmos 1842 Rocket 4.0 17:32:20 10° NNW 17:36:39 63° W 17:40:55 10° S
H-2A R/B 2.8 17:32:22 10° S 17:36:41 75° WSW 17:41:09 10° NNW
ASTEX 1 4.0 17:33:58 10° NNE 17:38:29 35° E 17:42:57 10° SSE
Cosmos 2208 Rocket 4.2 17:34:31 10° SSW 17:39:47 79° WNW 17:45:03 10° NNE
Cosmos 2219 4.3 17:34:55 10° SW 17:40:21 50° NW 17:45:51 10° NNE
Cosmos 2221 4.0 17:40:01 10° NNW 17:44:05 39° W 17:48:05 10° SSW
USA 186 4.2 17:46:05 10° SW 17:48:07 18° W 17:50:06 10° NW
Cosmos 1151 Rocket 4.0 17:44:42 10° N 17:48:35 31° ENE 17:52:01 12° SE
Ariane Rocket 3.2 17:44:23 10° SSE 17:49:20 56° ENE 17:54:17 10° N
Cosmos 1184 Rocket 2.7 17:48:19 10° NNW 17:51:16 70° W 17:54:11 10° S
Cosmos 2173 Rocket 4.4 17:52:03 10° N 17:58:05 45° ENE 18:03:29 12° SE
H-2A R/B 2.1 17:54:23 10° NNE 17:58:44 58° ESE 18:02:57 10° S
USA 306 4.1 17:55:54 10° S 17:58:57 20° SE 18:02:00 10° E
Cosmos 1862 3.4 17:57:37 10° S 18:01:33 56° E 18:05:31 10° NNE
Cosmos 2227 Rocket 4.2 17:57:36 10° WSW 18:02:39 33° NW 18:07:45 10° NNE
MetOp-B 4.2 17:58:52 10° SSE 18:04:11 69° ENE 18:09:32 10° N
Cosmos 1943 3.2 18:03:58 10° NNW 18:09:38 89° ENE 18:14:34 14° SSE
USA 245 3.3 18:10:46 21° SE 18:12:08 37° ENE 18:15:08 10° N
NOSS 2-3 (D) 4.1 18:09:29 10° S 18:12:56 30° ESE 18:16:47 10° ENE
Cosmos 1328 Rocket 4.3 18:10:22 10° N 18:14:21 35° ENE 18:16:54 19° SE
Cosmos 921 Rocket 3.0 18:10:49 10° S 18:14:59 59° ESE 18:19:08 10° NNE
Cosmos 1340 3.2 18:12:13 10° NNW 18:15:54 58° W 18:19:33 10° S
NOSS 2-3 (C) 4.0 18:12:38 10° S 18:16:12 35° ESE 18:20:14 10° NE
Spot 2 Rocket 4.0 18:13:25 16° SE 18:17:08 46° ENE 18:21:59 10° N
Meteor 1-10 Rocket 4.3 18:13:45 10° N 18:19:20 65° ENE 18:23:45 16° SSE
Cosmos 2151 4.2 18:18:37 10° SSW 18:22:40 43° WNW 18:26:43 10° N
SPOT 5 3.2 18:19:58 18° SE 18:23:18 51° ENE 18:28:12 10° N
SPOT 3 Rocket 3.6 18:19:43 15° SSE 18:24:01 74° ENE 18:29:14 10° NNW
Cosmos 2016 Rocket 4.4 18:18:01 10° N 18:24:02 46° ENE 18:28:21 19° SE
NOSS 3-1 (C) 3.6 18:20:07 10° S 18:24:48 37° ESE 18:30:14 10° NE
CARTOSAT-1 3.6 18:22:57 15° SSE 18:26:33 84° WSW 18:30:54 10° NNW
SL-16 R/B 4.4 18:25:42 10° NW 18:29:42 20° W 18:33:42 10° SW
Cosmos 1515 4.2 18:26:57 10° N 18:30:33 40° ENE 18:32:09 26° SE
Cosmos 1459 Rocket 4.0 18:26:00 10° N 18:32:14 75° E 18:37:18 17° SSE
Cosmos 1802 Rocket 4.2 18:26:32 10° N 18:32:56 63° ENE 18:37:36 19° SSE
Cosmos 1725 Rocket 4.3 18:30:39 10° N 18:36:47 52° ENE 18:40:45 22° SE
ERS-1 Rocket 3.1 18:35:33 22° SE 18:38:41 61° ENE 18:43:39 10° N
Cosmos 1727 Rocket 4.2 18:33:12 10° SSW 18:39:23 74° W 18:45:34 10° N
CZ-4B R/B 1.7 18:40:34 10° N 18:43:39 61° WNW 18:46:28 12° SSW
Cosmos 2123 Rocket 4.2 18:39:57 18° SSE 18:44:35 54° E 18:50:41 10° NNE
Okean 3 Rocket 3.7 18:45:40 25° SSE 18:48:08 57° E 18:52:30 10° NNE
USA 234 3.5 18:43:00 10° ENE 18:49:11 43° SE 18:55:20 10° SSW
Resurs 01 Rocket 3.5 18:46:03 10° SSW 18:49:49 27° W 18:53:36 10° NW
USA 305 3.0 18:46:54 10° SW 18:50:53 47° SE 18:54:52 10° ENE
Cosmos 1500 4.0 18:51:16 29° E 18:51:31 29° E 18:54:47 10° NNE
Cosmos 1346 Rocket 3.4 18:47:56 10° N 18:51:46 42° ENE 18:52:58 32° ESE
USA 307 3.1 18:48:01 10° SSW 18:51:53 40° SE 18:55:46 10° ENE
Cosmos 2263 Rocket 3.2 18:46:45 10° SW 18:52:06 47° NW 18:57:30 10° NNE
Cosmos 2100 Rocket 4.1 18:46:17 10° NNW 18:52:30 74° W 18:57:32 16° S
Genesis I 3.2 18:48:33 10° SSW 18:52:31 59° SE 18:56:33 10° NE
Terra 1.8 18:53:28 29° SSE 18:55:50 69° ENE 19:00:35 10° N
Helios 1A Rocket 2.9 18:55:50 34° SSE 18:57:30 73° ENE 19:01:36 10° N
Cosmos 1844 Rocket 2.8 18:53:53 19° S 18:57:37 50° ESE 19:03:00 10° NE
BREEZE-M DEB (TANK) 4.5 18:56:03 10° W 18:59:25 42° SSW 19:04:02 24° SE
NOSS 2-3 (E) 3.3 18:57:20 10° SW 19:01:16 88° SE 19:05:54 10° NE
Meteor 1-27 Rocket 3.7 18:55:44 10° NNW 19:01:21 88° E 19:04:37 27° SSE
NOSS 3-1 (A) 3.6 19:01:27 29° SSE 19:03:13 38° ESE 19:08:42 10° NE
Okean 1 4.1 19:02:35 10° N 19:06:19 36° ENE 19:07:02 34° E
Meteor 1-19 Rocket 4.5 19:00:46 10° N 19:06:23 55° ENE 19:08:48 32° SE
Meteor 1-25 Rocket 4.4 19:07:20 30° SSE 19:09:52 53° E 19:15:18 10° NNE
Cosmos 158 Rocket 4.0 19:04:48 10° SSW 19:10:13 88° WNW 19:15:38 10° NNE
ARIANE 5 R/B 2.6 19:09:56 40° SE 19:11:20 65° ENE 19:15:39 10° N
Cosmos 1515 Rocket 3.5 19:06:59 10° N 19:11:21 71° E 19:12:42 42° SSE
Cosmos 1356 3.4 19:09:26 10° N 19:12:39 53° ENE 19:12:44 53° E
ATLAS 5 CENTAUR R/B 2.7 19:08:09 10° NW 19:13:27 54° SW 19:16:36 28° S
Cosmos 1408 Rocket 3.6 19:13:34 42° SSE 19:14:45 59° E 19:19:07 10° NNE
Cosmos 967 Rocket 4.5 19:09:10 10° NW 19:15:33 76° WSW 19:18:38 32° SSE
SL-23 DEB 4.3 19:15:59 10° WNW 19:19:57 38° SW 19:20:06 38° SSW
CZ-4C R/B 2.1 19:16:45 10° SW 19:21:35 78° NW 19:27:37 10° NE
Cosmos 405 4.4 19:23:05 25° ENE 19:23:05 25° ENE 19:25:06 10° NNE
USA 308 2.7 19:20:14 10° SW 19:24:20 66° SSE 19:28:27 10° ENE
Cosmos 292 Rocket 4.4 19:20:56 10° NNW 19:25:36 48° WSW 19:27:37 30° SSW
ATLAS 3B R/B 3.9 19:19:37 10° WSW 19:26:04 44° NW 19:32:55 10° NE
Cosmos 1400 Rocket 3.4 19:23:57 23° SW 19:26:19 55° WNW 19:30:20 10° N
Cosmos 1538 Rocket 3.8 19:24:37 27° SSW 19:27:28 80° ESE 19:32:41 10° NNE
Cosmos 1680 Rocket 4.4 19:30:54 30° E 19:30:54 30° E 19:35:25 10° NE
Cosmos 1743 Rocket 3.7 19:33:00 49° ESE 19:33:19 50° E 19:37:32 10° NNE
CZ-2C R/B 3.7 19:29:48 10° N 19:34:16 76° WNW 19:36:18 32° SSW
Cosmos 2233 Rocket 4.0 19:29:21 10° N 19:35:41 90° E 19:38:30 36° S
Cosmos 2228 Rocket 3.7 19:31:42 10° N 19:36:04 42° ENE 19:36:45 39° E
Cosmos 923 Rocket 4.3 19:37:07 43° SE 19:37:49 46° ESE 19:42:53 10° NNE
USA 306 2.7 19:33:48 10° WSW 19:37:55 89° SSE 19:42:04 10° ENE
Meteor 1-20 Rocket 4.2 19:38:53 29° SSW 19:41:52 79° WNW 19:47:33 10° N
Cosmos 1441 Rocket 3.1 19:41:07 10° NNW 19:44:53 76° W 19:45:03 74° SW
ADEOS Rocket 4.0 19:42:28 28° ESE 19:45:51 44° ENE 19:52:17 10° N
Cosmos 2061 Rocket 4.5 19:41:14 10° NNW 19:47:22 56° W 19:50:41 27° SSW
Cosmos 1833 Rocket 3.5 19:42:17 10° NNW 19:47:39 42° NE 19:49:47 30° E
Cosmos 1932 4.5 19:41:27 10° NW 19:47:57 83° SW 19:50:22 42° SSE
Cosmos 1707 Rocket 4.4 19:49:32 10° N 19:53:42 36° ENE 19:53:59 36° E
Cosmos 2112 Rocket 4.4 19:55:31 41° ESE 19:55:31 41° ESE 20:00:24 10° NE
Cosmos 2082 Rocket 3.9 19:51:59 10° N 19:56:35 25° NE 19:59:39 16° E
Cosmos 1371 Rocket 4.3 19:54:59 10° NNW 20:00:17 58° ENE 20:01:29 47° ESE
Cosmos 1844 3.9 19:56:38 18° SW 20:00:59 70° WNW 20:06:44 10° NNE
Cosmos 1500 Rocket 3.6 20:00:53 60° SW 20:01:36 75° W 20:05:59 10° N
NOSS 2-2 (E) 4.1 20:05:52 37° NE 20:05:52 37° NE 20:08:12 10° NE
Spot 4 4.2 20:04:20 47° E 20:05:04 51° ENE 20:09:48 10° N
Cosmos 1624 Rocket 4.3 19:59:52 10° NNW 20:05:05 59° ENE 20:06:12 48° ESE
CENTAUR R/B 4.4 19:59:44 10° NW 20:06:41 36° NNE 20:14:34 10° E
Cosmos 1633 Rocket 4.3 20:09:18 29° ENE 20:09:18 29° ENE 20:12:34 10° NNE
Cosmos 1666 3.1 20:09:36 54° W 20:09:38 54° WNW 20:13:18 10° N
Cosmos 1544 3.5 20:10:31 57° NNE 20:10:31 57° NNE 20:13:28 10° N
Meteor 1-18 Rocket 4.3 20:05:11 10° NNW 20:11:07 76° W 20:12:43 49° S
Cosmos 1464 Rocket 4.1 20:06:53 10° N 20:13:13 64° ENE 20:14:54 47° SE
Cosmos 2278 Rocket 3.3 20:14:29 29° E 20:14:29 29° E 20:18:45 10° NE
NOSS 3-1 (C) 4.1 20:10:11 10° WSW 20:15:24 50° NW 20:21:40 10° NE
Cosmos 1315 Rocket 3.4 20:20:44 47° W 20:21:00 48° WNW 20:24:52 10° N
Cosmos 2346 Rocket 4.5 20:20:41 52° SSE 20:22:09 69° E 20:28:23 10° NNE
Cosmos 2034 Rocket 4.3 20:17:32 10° N 20:23:37 55° ENE 20:25:07 44° ESE
USA 229 DEB 3.5 20:22:40 25° SW 20:26:36 87° NW 20:33:32 10° NE
USA 229 3.5 20:22:52 26° SW 20:26:42 87° NW 20:33:37 10° NE
CSL-04 DEB 4.5 20:24:00 10° NNE 20:27:47 74° NNW 20:27:47 74° NNW
Cosmos 389 Rocket 3.7 20:30:38 39° N 20:30:38 39° N 20:32:54 10° N
Meteor 1-14 Rocket 4.1 20:29:14 63° S 20:30:10 84° E 20:35:46 10° NNE
Cosmos 1378 4.4 20:26:49 10° NNW 20:29:46 33° WNW 20:29:46 33° WNW
USA 305 3.5 20:26:16 10° W 20:30:19 53° NNW 20:34:22 10° ENE
SAR-Lupe-4 4.3 20:27:01 10° N 20:29:57 52° NNW 20:29:57 52° NNW
USA 307 3.4 20:27:14 10° W 20:31:18 57° NNW 20:35:22 10° ENE
USA 234 3.4 20:25:57 10° NE 20:32:30 75° NNW 20:39:01 10° WSW
Terra 4.0 20:32:22 14° WSW 20:34:05 16° W 20:37:05 10° NW
ALOS 2 2.8 20:36:34 62° ENE 20:36:34 62° ENE 20:40:50 10° N
Cosmos 2056 Rocket 3.3 20:31:20 10° NNW 20:36:33 80° WSW 20:36:58 73° SSW
Cosmos 2098 Rocket 4.0 20:39:33 52° SSW 20:41:15 83° W 20:48:19 10° N
BREEZE-M DEB (TANK) 4.3 20:36:05 10° WNW 20:40:36 31° WSW 20:40:36 31° WSW
Cosmos 1844 Rocket 4.2 20:36:44 10° WSW 20:41:44 33° NW 20:46:46 10° NNE
Meteor 2-4 Rocket 4.3 20:36:25 10° NNW 20:42:11 52° W 20:43:33 43° SW
Cosmos 44 3.5 20:43:34 10° NW 20:47:12 53° W 20:47:12 53° W
Cosmos 1862 Rocket 3.6 20:45:31 10° N 20:49:40 77° NNE 20:49:40 77° NNE
Sich 1 3.8 20:50:03 43° W 20:50:18 44° WNW 20:54:29 10° N
Cosmos 1816 Rocket 4.4 20:50:33 58° SSE 20:51:36 70° E 20:57:50 10° NNE
NOSS 2-2 (D) 4.4 20:52:53 37° NNW 20:52:53 37° NNW 20:55:49 10° NNE
NOSS 3-1 (A) 4.1 20:48:46 11° WSW 20:53:53 49° NW 21:00:11 10° NE
Cosmos 1943 Rocket 3.8 20:57:43 20° E 20:57:43 20° E 21:01:08 10° NE
Tsikada Rocket 4.1 20:57:25 53° SE 20:58:19 58° E 21:04:26 10° NNE
COSMOS 2406 3.2 20:52:56 10° NNW 20:58:39 76° ENE 20:59:32 62° ESE
Cosmos 1066 Rocket 4.2 20:54:06 10° NNW 20:59:59 78° W 21:00:49 65° SSW
USA 308 3.8 21:00:00 10° W 21:03:59 45° NNW 21:07:59 10° ENE
Cosmos 1933 Rocket 4.4 21:10:47 41° ENE 21:10:47 41° ENE 21:14:11 10° NNE
CZ-4C R/B 4.3 21:06:34 10° WNW 21:11:08 27° NNW 21:16:36 10° NE
Cosmos 1666 Rocket 4.1 21:12:02 52° WNW 21:12:02 52° WNW 21:16:12 10° N
Cosmos 1680 Rocket 4.4 21:11:11 33° WSW 21:12:50 43° WNW 21:17:49 10° NNE
USA 306 4.1 21:13:45 10° W 21:17:40 40° N 21:21:35 10° ENE
Cosmos 1536 3.5 21:24:09 52° NNW 21:24:09 52° NNW 21:27:17 10° N
IRIDIUM 104 4.2 21:28:38 81° SE 21:28:49 84° E 21:34:04 10° N
Meteor 1-11 Rocket 3.6 21:28:18 68° SW 21:28:55 76° WNW 21:34:28 10° N
ADEOS Rocket 3.9 21:29:25 39° SW 21:31:17 46° W 21:37:58 10° NNW
Cosmos 1833 Rocket 3.4 21:26:21 10° NW 21:31:27 38° WSW 21:31:27 38° WSW
Lacrosse 5 rocket 3.8 21:34:54 12° ENE 21:34:54 12° ENE 21:35:14 10° ENE
Cosmos 1331 Rocket 4.1 21:28:38 10° NNW 21:33:47 66° ENE 21:34:15 62° E
Cosmos 1452 Rocket 3.4 21:28:45 10° NNW 21:34:02 79° WSW 21:34:05 78° WSW
IRIDIUM 114 4.2 21:37:47 80° SW 21:37:59 82° W 21:43:15 10° N
Cosmos 1470 Rocket 4.0 21:38:37 56° WNW 21:38:37 56° WNW 21:42:46 10° N
NOSS 3-2 (A) 4.2 21:31:27 10° NW 21:38:46 71° NE 21:44:21 23° SE
Cosmos 2082 Rocket 2.0 21:35:37 10° NNW 21:41:14 73° WSW 21:41:27 72° SW
BREEZE-M DEB (TANK) 3.7 21:41:04 50° W 21:42:13 72° SSW 21:54:38 10° ESE
Cosmos 494 Rocket 3.9 21:42:48 77° ESE 21:42:48 77° ESE 21:48:00 10° NNE
Cosmos 1633 Rocket 4.4 21:46:21 30° WNW 21:46:28 30° WNW 21:50:22 10° N
IRIDIUM 103 4.3 21:46:54 68° WSW 21:47:08 69° W 21:52:21 10° N
Okean 1-7 3.6 21:46:48 10° NNW 21:50:28 52° NW 21:50:28 52° NW
ATLAS CENTAUR R/B 4.0 21:48:56 10° NNW 21:52:47 23° NNE 21:56:27 10° E
Okean 3 4.1 21:52:55 10° NNW 21:56:14 49° NW 21:56:14 49° NW
ERS-2 3.3 21:53:29 10° NNE 21:55:56 41° N 21:55:56 41° N
Cosmos 2278 Rocket 2.7 21:56:18 42° WSW 21:57:45 53° NW 22:03:19 10° NNE
Cosmos 1634 Rocket 4.0 21:51:42 10° NNW 21:57:57 65° W 21:58:56 57° SW
CENTAUR R/B 3.2 21:50:28 10° NW 21:58:35 81° NE 22:04:42 23° SE
Meteor 2-15 Rocket 4.4 21:53:20 10° NNW 21:59:23 66° W 22:00:11 60° SW
Cosmos 1743 4.4 22:04:13 26° WNW 22:04:13 26° WNW 22:07:01 10° NNW
Resurs 1-4 Rocket 3.8 22:00:22 10° NE 22:04:15 20° E 22:05:23 19° ESE
Cosmos 468 4.4 22:07:04 71° WSW 22:07:29 75° WNW 22:12:48 10° NNE
MOZ.5/SAFIR/RUBIN 5/SL-8 4.4 22:08:18 44° E 22:08:55 47° ENE 22:13:23 10° N
Cosmos 1674 3.7 22:05:17 10° N 22:08:06 43° NNE 22:08:06 43° NNE
USA 305 4.2 22:06:25 10° WNW 22:10:17 38° N 22:14:09 10° ENE
Cosmos 1626 3.2 22:07:39 10° N 22:10:23 41° NNE 22:10:23 41° NNE
USA 307 4.2 22:07:24 10° WNW 22:11:17 38° N 22:15:09 10° ENE
Cosmos 1869 Rocket 3.7 22:15:28 69° NNW 22:15:28 69° NNW 22:19:21 10° N
USA 234 4.3 22:08:56 10° ENE 22:15:05 45° N 22:21:13 10° WNW
Cosmos 44 Rocket 4.4 22:13:37 10° NNW 22:18:04 39° NE 22:21:11 18° ESE
Cosmos 1975 3.3 22:19:03 58° NNE 22:19:03 58° NNE 22:22:19 10° N
GEOS 3 Rocket 3.6 22:19:25 63° WSW 22:19:25 63° WSW 22:24:16 10° NW
Cosmos 192 4.3 22:17:25 10° NNW 22:22:15 73° W 22:22:15 73° W
Cosmos 2242 Rocket 4.4 22:19:08 10° NNW 22:22:58 43° WNW 22:22:58 43° WNW
Okean 2 3.7 22:19:57 10° N 22:23:32 62° NNE 22:23:32 62° NNE
Cosmos 1707 3.7 22:21:09 10° NNW 22:23:56 42° NW 22:23:56 42° NW
Cosmos 405 Rocket 4.4 22:22:33 10° NNW 22:24:29 24° NW 22:24:29 24° NW
Cosmos 1302 Rocket 3.8 22:28:48 10° NNW 22:34:06 81° WSW 22:34:34 73° SSW
CZ-2D R/B 3.2 22:29:12 10° NNE 22:34:09 35° E 22:35:33 30° SE
Nadezhda 4 Rocket 4.0 22:35:17 52° SSE 22:36:49 74° E 22:43:01 10° NNE
Cosmos 1674 Rocket 4.1 22:33:58 10° N 22:38:15 50° ENE 22:38:43 48° E
Cosmos 1726 3.9 22:39:50 24° E 22:39:50 24° E 22:42:32 10° NE
Cosmos 1943 Rocket 2.2 22:39:13 57° WSW 22:40:18 74° WNW 22:45:58 10° NNE
Aureole 3 Rocket 4.2 22:38:14 10° NNW 22:44:01 72° W 22:46:20 46° SSW
USA 308 4.1 22:40:07 10° WNW 22:44:03 40° N 22:47:57 10° E
Meteor 1-4 Rocket 4.0 22:46:05 31° NW 22:46:05 31° NW 22:48:37 10° N
USA 81 4.0 22:41:30 10° N 22:46:49 87° E 22:47:44 62° SSE
NOSS 3-2 (C) 4.0 22:44:05 10° NW 22:51:33 85° SW 23:00:12 10° SE
Lacrosse 5 2.6 22:52:00 39° SE 22:52:00 39° SE 22:56:36 10° ENE
Cosmos 2369 Rocket 2.4 22:52:37 48° SSE 22:53:43 57° ESE 22:59:13 10° NE
USA 306 3.9 22:53:42 10° WNW 22:57:41 45° NNE 23:01:38 10° E
Cosmos 1992 Rocket 4.0 22:53:18 10° NNW 22:58:33 78° ENE 23:00:14 44° SE
ADEOS II 3.4 22:54:27 10° NNE 22:59:09 32° E 23:01:12 24° SE
SL-24 R/B - RUBIN 2 4.4 23:03:39 10° NNW 23:08:02 52° NE 23:12:46 10° ESE
USA 238 DEB 3.8 23:02:00 10° NW 23:09:15 74° SW 23:15:36 16° SSE
USA 238 3.8 23:02:06 10° NW 23:09:22 74° SW 23:15:50 15° SSE
Lacrosse 5 rocket 1.8 23:10:23 46° NW 23:10:44 48° NNW 23:14:18 10° NE
SL-14 R/B 3.2 23:08:18 10° NNW 23:12:01 75° NW 23:12:01 75° NW
Cosmos 1833 4.4 23:06:35 10° NNW 23:12:20 70° ENE 23:16:55 17° SE
Cosmos 2221 Rocket 3.8 23:08:20 10° NNW 23:12:36 53° W 23:12:36 53° W
Cosmos 2297 4.0 23:15:43 40° WSW 23:17:32 57° WNW 23:23:11 10° NNE
Cosmos 1805 3.4 23:20:34 58° WNW 23:20:34 58° WNW 23:24:17 10° N
Meteor 2-21 Rocket 4.5 23:18:26 44° SSW 23:20:31 73° WNW 23:26:45 10° N
Cosmos 1553 Rocket 4.5 23:16:02 10° N 23:22:02 56° ENE 23:26:37 17° SSE
Cosmos 1908 Rocket 3.8 23:21:13 51° SSE 23:22:11 67° E 23:26:39 10° NNE
Cosmos 2082 Rocket 4.3 23:22:24 10° WNW 23:23:16 11° W 23:23:16 11° W
Meteor 2-10 4.0 23:22:46 48° SSW 23:24:18 88° WNW 23:29:48 10° NNE
MOS 1 Rocket 3.5 23:23:28 51° SSW 23:24:30 62° W 23:29:25 10° NNW
SL-16 R/B 2.4 23:21:24 30° SSE 23:24:40 87° WSW 23:30:54 10° NNW
Thor Agena Rocket 3.6 23:23:41 10° N 23:28:41 64° WNW 23:30:02 46° SW
UNK 3.7 23:27:21 42° SSE 23:28:53 85° ENE 23:33:30 10° NNW
Cosmos 1733 3.8 23:30:12 42° WNW 23:30:12 42° WNW 23:33:46 10° N
Cosmos 1733 Rocket 3.7 23:29:56 37° W 23:30:17 38° WNW 23:34:21 10° N
NPP 3.6 23:26:33 10° NNE 23:31:59 86° ESE 23:33:58 41° SSW
ATLAS CENTAUR R/B 1.5 23:27:24 10° NW 23:32:12 89° SW 23:34:52 24° SE
Cosmos 1378 Rocket 4.1 23:36:41 10° NNW 23:40:46 39° W 23:40:56 39° W
Cosmos 2263 4.2 23:41:37 39° SSW 23:43:52 85° WNW 23:49:42 10° NNE
Resurs 1-4 Rocket 2.2 23:39:17 10° N 23:44:32 65° WNW 23:46:27 38° SW
CENTAUR R/B 3.9 23:41:43 10° NW 23:48:58 34° WSW 23:51:46 28° SW
SL-27 R/B 4.1 23:46:52 10° N 23:50:05 33° ENE 23:53:18 10° SE
USA 305 3.0 23:46:02 10° WNW 23:50:09 71° NNE 23:54:14 10° ESE
USA 307 3.2 23:47:08 10° WNW 23:51:14 64° NNE 23:55:19 10° ESE
Cosmos 1766 3.5 23:53:50 45° WSW 23:54:20 48° WNW 23:58:05 10° N
COSMOS 2487 3.3 23:52:39 10° N 23:55:34 41° ENE 23:57:35 17° SE
